Voltar ao catálogo

STARLINK-31598

AtivoComunicaçõesVLEO
NORAD 59263·PAYLOAD·🇺🇸 United States

Lançado Mar 19, 2024 de Vandenberg Space Force Base

Loading…

Próximas Passagens (próximas 24 horas)

TLE

AtualizadoSource: CelesTrak SupGP

Época: Sep 14, 2026, 20:56 UTC

1 59263C 24050K   26257.87270833  .00031692  00000+0  93698-3 0  2571
2 59263  53.1589  19.7096 0001336  86.3139 107.6396 15.34353750    12

Acompanhe STARLINK-31598 em tempo real com AllMySat

Download on the App Store